Home   Weather   Nukualofa   Past weeks

Flag for Tonga Past Weather in Nukualofa, Tonga — Yesterday and Last 2 Weeks

Now
77 °F

Passing clouds.


Feels Like: 78 °F
Forecast: 70 / 74 °F
Wind: 5 mph from North

Location: Fua'Amotu

Current Time: Aug 21, 2017 at 7:50:14 pm

Latest Report: Aug 21, 2017 at 7:00 pm


Visibility: N/A

Pressure: 29.92 "Hg

Humidity: 94%

Dew Point: 75 °F

Location of NukualofaLocation

Past Weather in Nukualofa — Graph

°F

Nukualofa Temperature Yesterday

Maximum temperature yesterday: 82 °F (at 2:00 pm)
Minimum temperature yesterday: 72 °F (at 12:00 am)
Average temperature yesterday: 76 °F

High & Low Weather Summary for the Past Weeks

 TemperatureHumidityPressure
High82 °F (Aug 20, 2:00 pm)100% (Aug 11, 10:00 pm)30.18 "Hg (Aug 11, 10:00 pm)
Low55 °F (Aug 19, 6:00 am)47% (Aug 8, 11:00 am)29.74 "Hg (Aug 16, 8:00 pm)
Average72 °F78%30.02 "Hg
* Reported Aug 6 6:00 pm — Aug 21 6:00 pm, Nukualofa. Weather by CustomWeather, © 2017

Note: Actual official high and low records may vary slightly from our data, if they occured in-between our weather recording intervals... More about our weather records

Advertising

Nukualofa Weather History for the Previous 24 Hours

Scroll right to see more
 ConditionsComfort  
Time TempWeatherWind HumidityBarometerVisibility
6:00 pm
Mon, Aug 21
77 °FScattered clouds.10 mph94%29.92 "HgN/A
5:00 pm79 °FScattered clouds.12 mph89%29.89 "HgN/A
4:00 pm79 °FBroken clouds.10 mph84%29.89 "HgN/A
3:00 pm81 °FScattered clouds.10 mph79%29.89 "HgN/A
2:00 pm82 °FScattered clouds.10 mph74%29.92 "HgN/A
1:00 pm82 °FScattered clouds.14 mph74%29.92 "HgN/A
12:00 pm82 °FScattered clouds.9 mph74%29.95 "HgN/A
11:00 am81 °FScattered clouds.7 mph79%29.95 "HgN/A
10:00 am79 °FScattered clouds.7 mph89%29.98 "HgN/A
9:00 am77 °FBroken clouds.12 mph89%29.95 "HgN/A
8:00 am77 °FBroken clouds.7 mph89%29.95 "HgN/A
7:00 am75 °FBroken clouds.9 mph94%29.92 "HgN/A
6:00 am75 °FPassing clouds.5 mph94%29.92 "HgN/A
5:00 am75 °FPassing clouds.9 mph94%29.92 "HgN/A
4:00 am75 °FPartly cloudy.7 mph94%29.92 "HgN/A
3:00 am77 °FPassing clouds.13 mph89%29.92 "HgN/A
2:00 am77 °FPartly cloudy.12 mph94%29.92 "HgN/A
1:00 am77 °FPartly cloudy.9 mph94%29.92 "HgN/A
12:00 am77 °FPartly cloudy.10 mph94%29.95 "HgN/A
11:00 pm
Sun, Aug 20
77 °FPartly cloudy.9 mph94%29.95 "HgN/A
10:00 pm77 °FPartly cloudy.7 mph94%29.95 "HgN/A
9:00 pm77 °FPartly cloudy.8 mph94%29.95 "HgN/A
8:00 pm75 °FPartly cloudy.No wind100%29.92 "HgN/A
7:00 pm77 °FPartly cloudy.5 mph94%29.89 "HgN/A
Weather by CustomWeather, © 2017

See weather overviewHow to use our weather pages